APZ706 RKSS-RKPK

Flight info

Callsign APZ706
Flight time 0h 39m
Altitude 23000
Route OSPOT2T OSPOT Y782 TGU DCT MASTA KEVOX3
Aircraft B738/M-SDE2E3FGHIRWXY/LB1

Departure

Time 2026-05-07 05:58
Airport Gimpo International Airport (RKSS)

Arrival

Time 2026-05-07 06:37
Airport Gimhae International Airport (RKPK)
Time Latitude Longitude Altitude Speed Heading
2026-05-07 05:43 37.55762 126.80333 57 ft 0 kts 45°
2026-05-07 05:49 37.55760 126.80331 59 ft 2 kts 45°
2026-05-07 05:49 37.55742 126.80308 61 ft 4 kts 45°
2026-05-07 05:49 37.55727 126.80289 65 ft 4 kts 46°
2026-05-07 05:50 37.55709 126.80264 59 ft 4 kts 52°
2026-05-07 05:50 37.55695 126.80235 60 ft 4 kts 76°
2026-05-07 05:50 37.55697 126.80210 57 ft 3 kts 135°
2026-05-07 05:50 37.55714 126.80190 61 ft 1 kts 135°
2026-05-07 05:51 37.55714 126.80189 61 ft 0 kts 135°
2026-05-07 05:53 37.55714 126.80190 66 ft 1 kts 135°
2026-05-07 05:54 37.55691 126.80218 66 ft 10 kts 135°
2026-05-07 05:54 37.55625 126.80300 60 ft 15 kts 142°
2026-05-07 05:54 37.55538 126.80264 65 ft 14 kts 228°
2026-05-07 05:54 37.55469 126.80181 61 ft 14 kts 206°
2026-05-07 05:55 37.55392 126.80233 64 ft 14 kts 135°
2026-05-07 05:55 37.55309 126.80337 65 ft 19 kts 135°
2026-05-07 05:55 37.55217 126.80453 66 ft 18 kts 135°
2026-05-07 05:55 37.55130 126.80563 66 ft 18 kts 134°
2026-05-07 05:56 37.55044 126.80671 65 ft 17 kts 135°
2026-05-07 05:56 37.54962 126.80774 61 ft 14 kts 135°
2026-05-07 05:56 37.54885 126.80827 60 ft 13 kts 197°
2026-05-07 05:56 37.54820 126.80750 61 ft 13 kts 227°
2026-05-07 05:57 37.54825 126.80652 65 ft 12 kts 313°
2026-05-07 05:57 37.54919 126.80535 66 ft 45 kts 315°
2026-05-07 05:57 37.55337 126.80008 60 ft 122 kts 315°
2026-05-07 05:57 37.56020 126.78999 238 ft 169 kts 303°
2026-05-07 05:58 37.56847 126.77853 1051 ft 180 kts 310°
2026-05-07 05:58 37.57729 126.76762 2096 ft 179 kts 309°
2026-05-07 05:58 37.58607 126.75657 2908 ft 183 kts 309°
2026-05-07 05:58 37.59553 126.74411 3206 ft 209 kts 309°
2026-05-07 05:59 37.60607 126.72999 3514 ft 228 kts 309°
2026-05-07 05:59 37.61616 126.71344 3753 ft 248 kts 291°
2026-05-07 05:59 37.61954 126.69233 4463 ft 246 kts 266°
2026-05-07 05:59 37.61593 126.67152 5470 ft 243 kts 246°
2026-05-07 06:00 37.60645 126.65381 6403 ft 247 kts 232°
2026-05-07 06:00 37.59340 126.63916 7176 ft 257 kts 211°
2026-05-07 06:00 37.57579 126.63360 8089 ft 267 kts 188°
2026-05-07 06:00 37.55700 126.63693 8959 ft 281 kts 168°
2026-05-07 06:01 37.53939 126.64922 9758 ft 297 kts 152°
2026-05-07 06:01 37.52295 126.66507 10397 ft 307 kts 149°
2026-05-07 06:01 37.50559 126.68262 10609 ft 332 kts 148°
2026-05-07 06:01 37.48694 126.70169 10772 ft 356 kts 147°
2026-05-07 06:02 37.46715 126.72195 10986 ft 376 kts 147°
2026-05-07 06:02 37.44654 126.74303 11574 ft 384 kts 147°
2026-05-07 06:02 37.42589 126.76409 12304 ft 388 kts 147°
2026-05-07 06:02 37.40472 126.78557 13002 ft 393 kts 147°
2026-05-07 06:03 37.38318 126.80732 13636 ft 398 kts 147°
2026-05-07 06:03 37.36139 126.82922 14205 ft 403 kts 147°
2026-05-07 06:03 37.33925 126.85142 14832 ft 408 kts 147°
2026-05-07 06:03 37.31724 126.87346 15531 ft 411 kts 148°
2026-05-07 06:04 37.29470 126.89600 16225 ft 415 kts 148°
2026-05-07 06:04 37.27195 126.91874 16802 ft 418 kts 148°
2026-05-07 06:04 37.24908 126.94157 17386 ft 421 kts 148°
2026-05-07 06:04 37.22632 126.96428 17949 ft 423 kts 148°
2026-05-07 06:05 37.20318 126.98735 18463 ft 426 kts 148°
2026-05-07 06:05 37.17984 127.01059 18954 ft 428 kts 149°
2026-05-07 06:05 37.15643 127.03388 19415 ft 431 kts 149°
2026-05-07 06:05 37.13281 127.05736 19885 ft 434 kts 149°
2026-05-07 06:06 37.10903 127.08099 20349 ft 436 kts 149°
2026-05-07 06:06 37.08538 127.10447 20795 ft 439 kts 149°
2026-05-07 06:06 37.06130 127.12834 21207 ft 442 kts 149°
2026-05-07 06:06 37.03697 127.15244 21593 ft 446 kts 150°
2026-05-07 06:07 37.01280 127.17637 21991 ft 448 kts 150°
2026-05-07 06:07 36.98829 127.20064 22486 ft 449 kts 150°
2026-05-07 06:07 36.96374 127.22495 22893 ft 450 kts 150°
2026-05-07 06:07 36.93889 127.24945 22887 ft 459 kts 150°
2026-05-07 06:08 36.91355 127.27443 22902 ft 466 kts 150°
2026-05-07 06:08 36.88834 127.29932 22877 ft 469 kts 150°
2026-05-07 06:08 36.86274 127.32460 22883 ft 466 kts 150°
2026-05-07 06:08 36.83735 127.34979 22885 ft 466 kts 148°
2026-05-07 06:09 36.82120 127.36773 22899 ft 470 kts 144°
2026-05-07 06:09 36.81321 127.37730 22907 ft 470 kts 143°
2026-05-07 06:09 36.78757 127.40937 22905 ft 472 kts 142°
2026-05-07 06:09 36.77202 127.42915 22909 ft 472 kts 142°
2026-05-07 06:10 36.74892 127.45821 22913 ft 472 kts 143°
2026-05-07 06:10 36.72578 127.48675 22907 ft 472 kts 143°
2026-05-07 06:10 36.70236 127.51531 22905 ft 471 kts 143°
2026-05-07 06:10 36.67887 127.54395 22913 ft 472 kts 143°
2026-05-07 06:11 36.65537 127.57260 22903 ft 472 kts 143°
2026-05-07 06:11 36.63192 127.60123 22908 ft 473 kts 143°
2026-05-07 06:11 36.60075 127.63926 22899 ft 473 kts 143°
2026-05-07 06:11 36.58487 127.65862 22891 ft 473 kts 143°
2026-05-07 06:12 36.56135 127.68728 22890 ft 473 kts 143°
2026-05-07 06:12 36.53818 127.71551 22893 ft 472 kts 143°
2026-05-07 06:12 36.51464 127.74413 22880 ft 473 kts 143°
2026-05-07 06:12 36.49107 127.77277 22896 ft 473 kts 143°
2026-05-07 06:13 36.46757 127.80130 22879 ft 473 kts 143°
2026-05-07 06:13 36.44397 127.82992 22875 ft 472 kts 143°
2026-05-07 06:13 36.42047 127.85846 22883 ft 472 kts 143°
2026-05-07 06:13 36.39732 127.88657 22871 ft 471 kts 143°
2026-05-07 06:14 36.37385 127.91508 22881 ft 471 kts 143°
2026-05-07 06:14 36.35043 127.94349 22890 ft 470 kts 143°
2026-05-07 06:14 36.32700 127.97190 22879 ft 470 kts 143°
2026-05-07 06:14 36.30360 128.00023 22871 ft 470 kts 143°
2026-05-07 06:15 36.28027 128.02845 22870 ft 468 kts 143°
2026-05-07 06:15 36.25714 128.05638 22867 ft 467 kts 143°
2026-05-07 06:15 36.23382 128.08446 22865 ft 467 kts 143°
2026-05-07 06:15 36.21041 128.11261 22869 ft 467 kts 143°
2026-05-07 06:16 36.18708 128.14065 22873 ft 467 kts 143°
2026-05-07 06:16 36.16374 128.16869 22865 ft 467 kts 142°
2026-05-07 06:16 36.14035 128.19677 22866 ft 467 kts 142°
2026-05-07 06:16 36.11709 128.22470 22845 ft 462 kts 142°
2026-05-07 06:17 36.09448 128.25191 22728 ft 446 kts 143°
2026-05-07 06:17 36.07256 128.27829 22628 ft 432 kts 143°
2026-05-07 06:17 36.05153 128.30354 22303 ft 424 kts 143°
2026-05-07 06:17 36.03030 128.32887 21771 ft 422 kts 143°
2026-05-07 06:18 36.00923 128.35397 21322 ft 419 kts 143°
2026-05-07 06:18 35.98831 128.37892 20890 ft 415 kts 143°
2026-05-07 06:18 35.96760 128.40360 20433 ft 412 kts 143°
2026-05-07 06:18 35.94698 128.42816 19989 ft 409 kts 143°
2026-05-07 06:19 35.92680 128.45218 19559 ft 407 kts 143°
2026-05-07 06:19 35.90650 128.47635 19120 ft 404 kts 143°
2026-05-07 06:19 35.88630 128.50039 18699 ft 401 kts 143°
2026-05-07 06:19 35.86633 128.52415 18334 ft 397 kts 143°
2026-05-07 06:20 35.84645 128.54776 17864 ft 395 kts 143°
2026-05-07 06:20 35.82598 128.57008 17291 ft 387 kts 153°
2026-05-07 06:20 35.80213 128.58395 16632 ft 374 kts 171°
2026-05-07 06:20 35.77703 128.58872 16253 ft 357 kts 186°
2026-05-07 06:21 35.75248 128.58723 15897 ft 349 kts 191°
2026-05-07 06:21 35.72857 128.58476 15438 ft 349 kts 191°
2026-05-07 06:21 35.70425 128.58208 14898 ft 350 kts 191°
2026-05-07 06:21 35.67999 128.57952 14393 ft 350 kts 191°
2026-05-07 06:22 35.65564 128.57710 13992 ft 348 kts 191°
2026-05-07 06:22 35.60797 128.57263 13175 ft 344 kts 190°
2026-05-07 06:22 35.58451 128.57048 12739 ft 342 kts 189°
2026-05-07 06:23 35.56089 128.56835 12390 ft 338 kts 189°
2026-05-07 06:23 35.53745 128.56622 12001 ft 335 kts 189°
2026-05-07 06:23 35.51417 128.56411 11546 ft 334 kts 189°
2026-05-07 06:23 35.49125 128.56203 11125 ft 334 kts 189°
2026-05-07 06:24 35.46800 128.56294 10911 ft 335 kts 175°
2026-05-07 06:24 35.44531 128.56840 10887 ft 332 kts 174°
2026-05-07 06:24 35.42300 128.57411 10872 ft 323 kts 174°
2026-05-07 06:24 35.40148 128.57962 10748 ft 307 kts 174°
2026-05-07 06:25 35.38114 128.58477 10627 ft 291 kts 174°
2026-05-07 06:25 35.36175 128.58961 10514 ft 277 kts 174°
2026-05-07 06:25 35.34326 128.59417 10316 ft 267 kts 175°
2026-05-07 06:25 35.32509 128.59856 9928 ft 266 kts 174°
2026-05-07 06:26 35.30683 128.60292 9649 ft 267 kts 175°
2026-05-07 06:26 35.28868 128.60728 9440 ft 264 kts 174°
2026-05-07 06:26 35.27065 128.61161 9150 ft 264 kts 174°
2026-05-07 06:26 35.25257 128.61595 8912 ft 263 kts 174°
2026-05-07 06:27 35.23491 128.62023 8692 ft 261 kts 174°
2026-05-07 06:27 35.21711 128.62453 8431 ft 260 kts 174°
2026-05-07 06:27 35.19934 128.62881 8208 ft 261 kts 173°
2026-05-07 06:27 35.18148 128.63284 8075 ft 259 kts 174°
2026-05-07 06:28 35.16375 128.63717 7898 ft 259 kts 174°
2026-05-07 06:28 35.14621 128.64148 7674 ft 260 kts 174°
2026-05-07 06:28 35.12840 128.64532 7381 ft 259 kts 175°
2026-05-07 06:28 35.11090 128.65060 7147 ft 261 kts 159°
2026-05-07 06:29 35.09564 128.66253 6927 ft 263 kts 149°
2026-05-07 06:29 35.08065 128.67522 6691 ft 262 kts 150°
2026-05-07 06:29 35.06550 128.68771 6380 ft 264 kts 150°
2026-05-07 06:29 35.05028 128.70021 6159 ft 261 kts 150°
2026-05-07 06:30 35.03529 128.71255 5929 ft 259 kts 150°
2026-05-07 06:30 35.02033 128.72494 5634 ft 260 kts 147°
2026-05-07 06:30 35.00852 128.74193 5332 ft 267 kts 121°
2026-05-07 06:30 35.00001 128.76164 5133 ft 264 kts 121°
2026-05-07 06:31 34.99136 128.78141 4855 ft 264 kts 121°
2026-05-07 06:31 34.98271 128.80099 4589 ft 264 kts 121°
2026-05-07 06:31 34.97404 128.82057 4381 ft 260 kts 121°
2026-05-07 06:31 34.96636 128.84055 4102 ft 263 kts 105°
2026-05-07 06:32 34.96578 128.86261 4005 ft 257 kts 85°
2026-05-07 06:32 34.96768 128.88393 3935 ft 248 kts 85°
2026-05-07 06:32 34.96954 128.90435 3878 ft 236 kts 85°
2026-05-07 06:32 34.97127 128.92380 3775 ft 225 kts 85°
2026-05-07 06:33 34.97477 128.94183 3623 ft 215 kts 57°
2026-05-07 06:33 34.98580 128.95230 3466 ft 197 kts
2026-05-07 06:33 34.99925 128.95476 3250 ft 202 kts
2026-05-07 06:33 35.01335 128.95633 2985 ft 204 kts 355°
2026-05-07 06:34 35.02735 128.95626 2706 ft 196 kts 351°
2026-05-07 06:34 35.04043 128.95504 2492 ft 180 kts 347°
2026-05-07 06:34 35.05250 128.95349 2250 ft 168 kts 345°
2026-05-07 06:34 35.06430 128.95193 2014 ft 171 kts 346°
2026-05-07 06:35 35.07599 128.95041 1786 ft 170 kts 346°
2026-05-07 06:35 35.08769 128.94889 1557 ft 168 kts 347°
2026-05-07 06:35 35.09928 128.94738 1328 ft 167 kts 347°
2026-05-07 06:35 35.11118 128.94603 1139 ft 176 kts 351°
2026-05-07 06:36 35.12349 128.94440 910 ft 176 kts 349°
2026-05-07 06:36 35.13532 128.94276 692 ft 173 kts 349°
2026-05-07 06:36 35.14718 128.94101 384 ft 168 kts 349°
2026-05-07 06:36 35.15859 128.93964 161 ft 163 kts 349°
2026-05-07 06:37 35.16978 128.93824 28 ft 158 kts 350°
2026-05-07 06:37 35.17939 128.93695 22 ft 112 kts 354°
2026-05-07 06:37 35.18480 128.93627 23 ft 56 kts 354°
2026-05-07 06:37 35.18729 128.93613 25 ft 32 kts 11°
2026-05-07 06:38 35.18920 128.93706 26 ft 26 kts 24°
2026-05-07 06:38 35.19005 128.93878 24 ft 25 kts 84°
2026-05-07 06:38 35.18980 128.94061 25 ft 23 kts 152°
2026-05-07 06:38 35.18824 128.94084 23 ft 22 kts 175°
2026-05-07 06:39 35.18672 128.94106 22 ft 22 kts 174°
2026-05-07 06:39 35.18524 128.94123 22 ft 21 kts 175°
2026-05-07 06:39 35.18380 128.94141 22 ft 20 kts 173°
2026-05-07 06:39 35.18241 128.94160 22 ft 20 kts 174°
2026-05-07 06:40 35.18107 128.94176 23 ft 19 kts 174°
2026-05-07 06:40 35.17976 128.94193 23 ft 19 kts 174°
2026-05-07 06:40 35.17850 128.94209 22 ft 18 kts 174°
2026-05-07 06:40 35.17727 128.94224 22 ft 17 kts 174°
2026-05-07 06:41 35.17611 128.94239 22 ft 17 kts 174°
2026-05-07 06:41 35.17497 128.94253 22 ft 16 kts 174°
2026-05-07 06:41 35.17388 128.94267 22 ft 15 kts 174°
2026-05-07 06:41 35.17283 128.94281 23 ft 15 kts 174°
2026-05-07 06:42 35.17184 128.94293 23 ft 14 kts 174°
2026-05-07 06:42 35.17092 128.94318 25 ft 14 kts 140°
2026-05-07 06:42 35.17077 128.94424 22 ft 13 kts 82°
2026-05-07 06:42 35.17076 128.94518 22 ft 10 kts 71°
2026-05-07 06:43 35.17097 128.94587 22 ft 6 kts 70°
2026-05-07 06:43 35.17098 128.94592 22 ft 0 kts 70°